Tracking 29892 objects as of 21-Nov-2024
HD Live streaming from Space Station
objects crossing your sky now

STARLINK-5565

Track STARLINK-5565 now!
10-day predictions
STARLINK-5565 is classified as:


NORAD ID: 55745
Int'l Code: 2023-028E
Perigee: 577.0 km
Apogee: 581.4 km
Inclination: 70.0 °
Period: 96.1 minutes
Semi major axis: 6950 km
RCS: Unknown
Launch date: March 3, 2023
Source: United States (US)
Launch site: AIR FORCE WESTERN TEST RANGE (AFWTR)
Your satellite tracking list
Your tracking list is empty




NASA's NSSDC Master Catalog

Two Line Element Set (TLE):
1 55745U 23028E   24325.08143764  .00000988  00000-0  90620-4 0  9996
2 55745  69.9996   0.9142 0003191 269.1456  90.9337 14.98331365 94950
Source of the keplerian elements: AFSPC